Location: Bonne
(46.1660°N, 6.3228°E)
Time: 21:43:47
(UTC+00:00)

Daily predictions for brighter satellites

Satellite Brightness Start Highest point End
(mag) Time Altitude Azimuth Time Altitude Azimuth Time Altitude Azimuth
ERS-2 1.5 16:19:01 10° SSE 16:21:56 85° ENE 16:24:53 10° NNW
[s.n.58448] 4.0 16:21:30 10° WSW 16:23:53 32° S 16:26:14 10° ESE
Cosmos 2227 Rocket 3.1 16:18:37 10° SW 16:24:04 48° WNW 16:29:33 10° NNE
USA 307 2.7 16:20:18 10° NW 16:24:09 61° NNE 16:27:55 10° ESE
[s.n.58449] 4.0 16:24:11 10° WSW 16:26:29 31° S 16:28:46 10° SE
Cosmos 44 3.6 16:22:02 10° NW 16:27:27 84° WSW 16:32:37 10° SSE
[s.n.58459] 4.0 16:25:16 10° WSW 16:27:38 32° SSW 16:30:01 10° SE
Cosmos 1140 Rocket 4.0 16:23:20 10° N 16:28:09 37° ENE 16:32:54 10° SE
[s.n.58458] 4.0 16:25:58 10° WSW 16:28:21 32° S 16:30:44 10° SE
[s.n.58456] 4.1 16:26:48 10° WSW 16:29:10 31° SSW 16:31:33 10° SE
SAR-Lupe-2 3.5 16:25:37 10° SSE 16:29:11 72° ENE 16:32:46 10° N
[s.n.58447] 4.1 16:27:08 10° WSW 16:29:28 31° SSW 16:31:49 10° SE
[s.n.58457] 4.1 16:27:33 10° WSW 16:29:56 31° SSW 16:32:18 10° SE
[s.n.58455] 4.1 16:28:19 10° WSW 16:30:42 31° SSW 16:33:04 10° SE
[s.n.58454] 4.1 16:29:05 10° WSW 16:31:28 31° SSW 16:33:50 10° SE
[s.n.58453] 4.1 16:29:52 10° WSW 16:32:15 31° SSW 16:34:37 10° SE
ARGOS 4.0 16:27:38 10° S 16:32:58 56° W 16:38:18 10° NNW
[s.n.58452] 4.1 16:30:35 10° WSW 16:32:58 31° SSW 16:35:21 10° SE
[s.n.58451] 4.1 16:31:22 10° WSW 16:33:44 31° SSW 16:36:06 10° SE
[s.n.58450] 4.1 16:32:08 10° WSW 16:34:30 30° SSW 16:36:53 10° SE
Cosmos 1666 2.6 16:31:21 10° N 16:34:49 52° E 16:38:16 10° SSE
[s.n.58446] 4.2 16:34:25 10° WSW 16:36:48 30° SSW 16:39:10 10° SE
[s.n.58445] 4.2 16:35:13 10° WSW 16:37:36 30° SSW 16:39:58 10° SE
Cosmos 1603 4.2 16:32:46 10° NNW 16:38:04 37° NE 16:43:18 10° ESE
[s.n.58444] 4.2 16:36:00 10° WSW 16:38:22 30° SSW 16:40:44 10° SE
[s.n.58443] 4.2 16:36:45 10° WSW 16:39:07 30° SSW 16:41:29 10° SE
DMSP B5D2-2 4.1 16:34:22 10° NNE 16:39:35 65° ESE 16:44:45 10° S
[s.n.58442] 4.2 16:37:34 10° WSW 16:39:57 29° SSW 16:42:19 10° SE
[s.n.58441] 4.2 16:38:22 10° WSW 16:40:45 29° SSW 16:43:06 10° SE
[s.n.58440] 4.2 16:39:06 10° WSW 16:41:28 29° SSW 16:43:50 10° SE
Cosmos 1076 Rocket 3.6 16:37:44 10° N 16:42:07 84° W 16:46:28 10° S
[s.n.58439] 4.2 16:39:54 10° WSW 16:42:16 29° SSW 16:44:38 10° SE
Meteor 1-31 Rocket 2.9 16:38:52 10° SE 16:42:25 47° ENE 16:46:00 10° N
[s.n.58437] 4.2 16:40:40 10° WSW 16:43:02 29° SSW 16:45:24 10° SE
[s.n.58438] 4.3 16:41:25 10° WSW 16:43:47 29° SSW 16:46:09 10° SE
Cosmos 1544 4.1 16:43:47 10° NNW 16:46:55 44° W 16:50:00 10° SSW
USA 306 1.9 16:45:03 10° WNW 16:47:13 51° SW 16:49:15 10° SE
SL-16 R/B 3.6 16:45:42 10° NW 16:51:03 43° WSW 16:56:21 10° S
ATLAS CENTAUR R/B 2.6 16:46:57 10° NW 16:51:05 74° NE 16:59:12 10° SE
Cosmos 1602 3.5 16:50:00 10° N 16:53:43 74° E 16:57:26 10° SSE
SL-8 R/B 3.9 16:50:29 10° WNW 16:55:15 75° SSW 17:00:02 10° ESE
RESURS DK-1 4.1 16:53:33 10° N 16:55:55 15° NE 16:56:12 15° NE
USA 305 2.5 16:52:07 10° NW 16:55:57 79° NNE 16:59:46 10° ESE
CZ-4B R/B 3.7 16:53:33 10° SE 16:58:21 45° ENE 17:03:02 10° N
Cosmos 1782 3.7 16:57:24 10° SSE 17:00:42 27° E 17:03:03 16° NE
Cosmos 1812 Rocket 3.8 16:56:53 10° SSE 17:01:01 46° E 17:05:13 10° NNE
Cosmos 1943 3.1 16:56:31 10° NNW 17:02:11 76° ENE 17:07:50 10° SSE
Helios 1A 3.4 16:59:00 10° NNE 17:02:55 39° E 17:06:49 10° S
ATLAS 2AS CENTAUR R/B 3.3 16:57:38 10° NNW 17:04:01 36° NE 17:09:08 14° E
SMAP 3.2 17:00:22 10° S 17:05:00 80° WSW 17:09:42 10° NNW
Cosmos 1500 4.4 17:02:00 10° NNW 17:05:21 42° W 17:08:42 10° SSW
Helios 1B rocket 4.1 17:01:58 10° SSW 17:05:37 36° W 17:09:18 10° NNW
NOAA 6 4.4 17:01:24 10° SE 17:06:12 42° ENE 17:11:00 10° N
CZ-4B R/B 3.6 17:04:51 10° SSE 17:08:26 82° WSW 17:12:06 10° NNW
Radarsat Rocket 4.1 17:07:10 10° SE 17:12:46 51° ENE 17:18:39 10° N
Cosmos 2297 Rocket 4.5 17:09:27 10° WNW 17:12:52 16° NW 17:16:18 10° N
Cosmos 407 Rocket 3.4 17:08:28 10° NNW 17:13:37 64° ENE 17:18:40 10° SSE
ISS -1.6 17:16:40 10° W 17:19:34 27° SW 17:22:28 10° SSE
Cosmos 2251 Rocket 3.5 17:16:01 10° NNW 17:21:24 79° ENE 17:26:46 10° SSE
Cosmos 220 Rocket 4.3 17:21:04 10° N 17:25:09 39° ENE 17:27:53 18° ESE
Cosmos 2056 Rocket 4.2 17:21:56 10° SSE 17:26:45 35° E 17:28:44 26° ENE
COSMOS 2455 4.2 17:23:13 10° SSE 17:27:03 19° ESE 17:27:03 19° ESE
Timation 2 Rocket 4.2 17:22:00 10° S 17:27:33 42° ESE 17:30:41 24° NE
Cosmos 1844 4.2 17:22:30 10° S 17:27:48 39° ESE 17:30:24 25° ENE
Cosmos 1954 Rocket 4.4 17:23:14 10° N 17:28:08 38° ENE 17:31:27 18° ESE
Lacrosse 5 2.2 17:24:45 10° SSW 17:29:37 49° SE 17:31:43 30° ENE
CZ-4 R/B 4.4 17:25:51 10° SSE 17:29:50 56° ENE 17:33:52 10° N
Cosmos-2242 3.4 17:26:16 10° SSW 17:30:35 66° W 17:34:55 10° N
COSMO-SKYMED 1 2.6 17:29:30 19° NNE 17:32:25 54° E 17:36:40 10° S
Lacrosse 4 Rocket 2.0 17:29:35 10° NW 17:33:52 59° WSW 17:38:01 10° SSE
Cosmos 1833 Rocket 4.3 17:31:14 10° N 17:33:48 16° NNE 17:33:48 16° NNE
APEX 3.3 17:36:23 10° SW 17:39:17 47° WNW 17:39:57 37° NNW
Cosmos 1553 Rocket 4.3 17:33:52 10° N 17:39:51 42° ENE 17:45:42 10° SE
Meteor 2-2 Rocket 4.3 17:34:29 10° S 17:40:15 89° W 17:46:10 10° N
Cosmos 2221 2.8 17:37:08 10° SSE 17:41:02 41° E 17:41:02 41° E
USA 234 3.2 17:37:35 25° NE 17:41:42 80° SE 17:48:14 10° SW
Cosmos 2344 3.4 17:34:13 10° SW 17:41:52 85° SE 17:47:04 21° NE
Meteor 1-25 Rocket 4.4 17:37:20 10° NNW 17:42:59 74° W 17:48:33 10° S
Cosmos 1812 3.8 17:40:14 10° SSW 17:43:45 42° WNW 17:47:17 10° N
Cosmos 1190 Rocket 3.9 17:40:24 10° NNW 17:45:43 70° ENE 17:50:59 10° SSE
Cosmos 1818 3.5 17:40:19 10° SW 17:45:45 86° NW 17:48:46 28° NE
Cosmos 2026 Rocket 3.9 17:41:03 10° S 17:47:18 79° E 17:53:40 10° N
USA 276 3.4 17:46:35 10° W 17:48:02 27° WNW 17:48:02 27° WNW
Cosmos 1371 Rocket 4.0 17:45:49 10° S 17:50:55 56° ESE 17:52:32 39° NE
Cosmos 1844 Rocket 2.5 17:54:09 10° SSW 17:59:42 79° ESE 18:02:02 36° NNE
Cosmos 2263 Rocket 3.9 17:55:27 10° WSW 18:00:09 27° NW 18:04:53 10° N
Meteor 1-26 Rocket 4.1 17:55:06 10° S 18:00:36 70° E 18:04:18 22° NNE
YAOGAN 1 4.1 18:07:02 24° N 18:07:02 24° N 18:08:47 10° N
Cosmos 1766 Rocket 3.3 18:00:12 10° N 18:04:34 78° E 18:08:54 10° SSE
Cosmos 1092 Rocket 4.1 17:58:43 10° SSW 18:04:50 76° W 18:11:01 10° N
Cosmos 1933 3.7 18:02:16 10° SSW 18:06:13 60° W 18:07:55 31° N
Cosmos 1420 Rocket 3.9 18:01:36 10° SSW 18:06:50 80° ESE 18:08:27 46° NNE
YAOGAN 3 4.4 18:05:14 10° SSE 18:09:32 85° ENE 18:13:53 10° NNW
ADEOS 3.6 18:04:30 10° SSE 18:09:44 83° WSW 18:14:59 10° NNW
Meteor 1-5 Rocket 4.3 18:08:01 10° NNW 18:13:45 82° W 18:19:36 10° S
Cosmos 1624 Rocket 3.8 18:09:26 10° SSW 18:14:40 84° ESE 18:15:39 59° NNE
BREEZE-M DEB (TANK) 4.4 18:14:45 10° WNW 18:15:04 13° WNW 18:15:04 13° WNW
SKYMED 2 4.4 18:18:07 24° N 18:20:27 48° WNW 18:24:38 10° SW
Cosmos 1417 Rocket 4.4 18:18:08 10° N 18:32:59 - SSE 18:24:06 60° ENE
SL-08 R/B 3.6 18:25:45 46° NNW 18:26:54 62° WNW 18:31:28 10° SSW
RESURS DK-1 4.1 18:30:09 10° NNW 18:31:56 25° NNW 18:31:56 25° NNW
Cosmos 676 Rocket 4.2 18:34:18 10° NNW 18:39:35 69° WSW 18:40:05 65° SW
BREEZE-M DEB 4.5 18:25:17 10° WSW 18:48:07 84° SSE 18:49:09 69° E
ATLAS 2AS CENTAUR R/B 2.8 18:48:36 10° NW 18:55:23 66° WSW 18:56:38 55° S
COSMOS 2455 3.8 19:06:26 10° SW 19:10:14 41° SW 19:10:14 41° SW
Lacrosse 5 3.4 19:07:51 10° W 19:10:56 32° WNW 19:10:56 32° WNW
USA 234 4.0 19:24:56 45° NNW 19:24:56 45° NNW 19:30:36 10° W
